This demonstration page uses our WeatherBlox Daily Observations layout. Learn more.

Left ArrowRight Arrow

Hourly Observations for November 16, 2018

Temp ( °F °C ) Dew Point ( °F °C ) Humidity (%) Winds ( mph kmh ) Pressure ( in mb ) Visibility ( mi km ) Precip ( " mm )
12:57 am 00:57 Clear 34 1.1 25 -3.9 70 70 W 5 7 30.11 1020 10 16 0.00 0.00
1:57 am 01:57 Clear 33 0.6 25 -3.9 72 72 W 7 11 30.11 1020 10 16 0.00 0.00
2:57 am 02:57 Clear 31 -0.6 25 -3.9 79 79 WSW 3 6 30.11 1020 10 16 0.00 0.00
3:57 am 03:57 Clear 29 -1.7 24 -4.4 82 82 Calm 30.10 1019 10 16 0.00 0.00
4:57 am 04:57 Clear 28 -2.2 23 -5 81 81 Calm 30.10 1019 10 16 0.00 0.00
5:57 am 05:57 Clear 28 -2.2 23 -5 81 81 Calm 30.11 1020 10 16 0.00 0.00
6:57 am 06:57 Clear 26 -3.3 22 -5.6 84 84 Calm 30.11 1020 10 16 0.00 0.00
7:57 am 07:57 Sunny 26 -3.3 23 -5 88 88 SSW 6 9 30.10 1019 10 16 0.00 0.00
8:57 am 08:57 Sunny 34 1.1 27 -2.8 76 76 S 7 11 30.09 1019 10 16 0.00 0.00
9:57 am 09:57 Sunny 44 6.7 31 -0.6 60 60 SSW 18 30 30.05 1018 10 16 0.00 0.00
10:57 am 10:57 Sunny 49 9.4 31 -0.6 50 50 SSW 23 37 30.02 1017 10 16 0.00 0.00
11:57 am 11:57 Sunny 52 11.1 31 -0.6 45 45 S 21 33 29.98 1015 10 16 0.00 0.00
12:57 pm 12:57 Sunny 56 13.3 30 -1.1 37 37 SSW 26 43 29.91 1013 10 16 0.00 0.00
1:57 pm 13:57 Sunny 58 14.4 30 -1.1 35 35 SSW 25 41 29.87 1011 10 16 0.00 0.00
2:57 pm 14:57 Sunny 60 15.6 29 -1.7 31 31 SSW 26 43 29.85 1011 10 16 0.00 0.00
3:57 pm 15:57 Sunny 60 15.6 30 -1.1 32 32 SSW 21 33 29.85 1011 10 16 0.00 0.00
4:57 pm 16:57 Sunny 56 13.3 31 -0.6 39 39 SSW 13 20 29.88 1012 10 16 0.00 0.00
5:57 pm 17:57 Clear 49 9.4 31 -0.6 50 50 SSW 9 15 29.90 1012 10 16 0.00 0.00
6:57 pm 18:57 Clear 42 5.6 31 -0.6 65 65 S 10 17 29.92 1013 10 16 0.00 0.00
7:57 pm 19:57 Partly Cloudy 50 10 32 0 50 50 WNW 9 15 29.96 1014 10 16 0.00 0.00
8:57 pm 20:57 Clear 49 9.4 31 -0.6 50 50 N 18 30 29.97 1015 10 16 0.00 0.00
9:57 pm 21:57 Mostly Clear 45 7.2 30 -1.1 56 56 N 18 30 30.00 1016 10 16 0.00 0.00
10:57 pm 22:57 Clear 43 6.1 31 -0.6 63 63 N 21 33 30.03 1017 10 16 0.00 0.00
11:57 pm 23:57 Clear 41 5 31 -0.6 67 67 N 28 44 30.05 1018 10 16 0.00 0.00

Powered by AerisWeather